Weather History for KDFW - July, 2014

Change the Weather History Date:

Sunday, July 13, 2014

  Actual Average Record
Temperature  
Mean Temperature 89 °F 85 °F  
Max Temperature 100 °F 95 °F 107 °F (1980)
Min Temperature 77 °F 75 °F 64 °F (1990)
Degree Days  
Heating Degree Days 0 0  
Month to date heating degree days 0 0  
Since 1 June heating degree days 0 0  
Since 1 July heating degree days 0 0  
Cooling Degree Days 24 20  
Month to date cooling degree days 267 255  
Year to date cooling degree days 1270 1168  
Since 1 June cooling degree days 794 746  
Growing Degree Days 38 (Base 50)    
Moisture  
Dew Point 65 °F    
Average Humidity 49    
Maximum Humidity 69    
Minimum Humidity 29    
Precipitation  
Precipitation 0.00 in 0.07 in 0.89 in (1960)
Month to date precipitation T 1.12  
Year to date precipitation 10.59 21.16  
Sea Level Pressure  
Sea Level Pressure 30.01 in    
Wind  
Wind Speed 8 mph (SSW)    
Max Wind Speed 16 mph    
Max Gust Speed 26 mph    
Visibility 10 miles    
Events      
T = Trace of Precipitation, MM = Missing Value Source: NWS Daily Summary

Daily Weather History Graph

Daily Weather History Graph

Search for Another Location

Airport or City:

Trip Planner

Search our weather history database for the weather conditions in past years. The results will help you decide how hot, cold, wet, or windy it might be!

Date:

Astronomy

Jul. 13, 2014 Rise Set
Actual Time 6:29 AM CDT 8:38 PM CDT
Civil Twilight 6:01 AM CDT 9:06 PM CDT
Nautical Twilight 5:27 AM CDT 9:40 PM CDT
Astronomical Twilight 4:50 AM CDT 10:17 PM CDT
Moon 9:36 PM CDT (7/13) 7:54 AM CDT (7/13)
Length of Visible Light 15h 04m
Length of Day
14h 08m
Full, 98% of the Moon is Illuminated
Jul 13
Full
Jul 18
Last Quarter
Jul 26
New
Aug 3
First Quarter
Aug 10
Full

Hourly Weather History & Observations

Time (CDT) Temp. Heat Index Dew Point Humidity Pressure Visibility Wind Dir Wind Speed Gust Speed Precip Events Conditions
12:53 AM 82.9 °F 85.0 °F 66.0 °F 56% 30.04 in 10.0 mi South 9.2 mph - N/A   Clear
1:53 AM 81.0 °F 83.3 °F 66.9 °F 62% 30.04 in 10.0 mi South 6.9 mph - N/A   Clear
2:53 AM 81.0 °F 83.3 °F 66.9 °F 62% 30.04 in 10.0 mi South 6.9 mph - N/A   Clear
3:53 AM 80.1 °F 82.3 °F 66.9 °F 64% 30.03 in 10.0 mi SSW 6.9 mph - N/A   Partly Cloudy
4:53 AM 78.1 °F - 66.9 °F 68% 30.03 in 10.0 mi SSW 6.9 mph - N/A   Clear
5:53 AM 77.0 °F - 66.9 °F 71% 30.04 in 10.0 mi SSW 8.1 mph - N/A   Clear
6:53 AM 79.0 °F - 66.9 °F 66% 30.05 in 10.0 mi SSW 10.4 mph - N/A   Clear
7:53 AM 82.0 °F 84.5 °F 66.9 °F 60% 30.06 in 10.0 mi SW 9.2 mph - N/A   Partly Cloudy
8:53 AM 86.0 °F 90.1 °F 69.1 °F 57% 30.07 in 10.0 mi WSW 10.4 mph - N/A   Partly Cloudy
9:53 AM 89.1 °F 92.9 °F 68.0 °F 50% 30.07 in 10.0 mi WSW 13.8 mph - N/A   Clear
10:53 AM 91.0 °F 95.2 °F 68.0 °F 47% 30.07 in 10.0 mi SW 8.1 mph - N/A   Clear
11:53 AM 93.0 °F 97.4 °F 68.0 °F 44% 30.06 in 10.0 mi Variable 3.5 mph - N/A   Partly Cloudy
12:53 PM 95.0 °F 97.4 °F 64.9 °F 37% 30.04 in 10.0 mi Variable 3.5 mph - N/A   Partly Cloudy
1:53 PM 97.0 °F 99.3 °F 64.0 °F 34% 30.02 in 10.0 mi West 9.2 mph - N/A   Partly Cloudy
2:53 PM 99.0 °F 100.5 °F 62.1 °F 30% 30.00 in 10.0 mi Calm Calm - N/A   Scattered Clouds
3:53 PM 99.0 °F 100.5 °F 63.0 °F 30% 29.98 in 10.0 mi Calm Calm - N/A   Scattered Clouds
4:53 PM 100.0 °F 101.8 °F 62.1 °F 29% 29.96 in 10.0 mi SE 11.5 mph 18.4 mph N/A   Scattered Clouds
5:53 PM 99.0 °F 99.5 °F 61.0 °F 28% 29.94 in 10.0 mi South 8.1 mph - N/A   Partly Cloudy
6:53 PM 98.1 °F 98.6 °F 61.0 °F 29% 29.93 in 10.0 mi South 10.4 mph - N/A   Partly Cloudy
7:53 PM 96.1 °F 97.3 °F 63.0 °F 33% 29.94 in 10.0 mi SSW 9.2 mph - N/A   Partly Cloudy
8:53 PM 91.9 °F 93.3 °F 64.0 °F 39% 29.95 in 10.0 mi South 8.1 mph - N/A   Scattered Clouds
9:53 PM 90.0 °F 91.7 °F 64.9 °F 43% 29.95 in 10.0 mi South 6.9 mph - N/A   Scattered Clouds
10:53 PM 90.0 °F 91.7 °F 64.9 °F 43% 29.95 in 10.0 mi South 9.2 mph - N/A   Scattered Clouds
11:53 PM 86.0 °F 87.6 °F 64.9 °F 49% 29.96 in 10.0 mi South 8.1 mph - N/A   Scattered Clouds